Tracking 19484 objects as of 19-Jan-2019
HD Live streaming from Space Station
objects crossing your sky now

APEX

Track APEX now!
10-day predictions
APEX is classified as:


NORAD ID: 23191
Int'l Code: 1994-046A
Perigee: 340.0 km
Apogee: 1,152.4 km
Inclination: 69.9 °
Period: 99.6 minutes
Semi major axis: 7117 km
RCS: 2.5502 m2 (large)
Launch date: August 3, 1994
Source: United States (US)
Launch site: AIR FORCE WESTERN TEST RANGE (AFWTR)
aabbcc
Your satellite tracking list
Your tracking list is empty




NASA's NSSDC Master Catalog

Two Line Element Set (TLE):
1 23191U 94046A   19017.90039434  .00003488  00000-0  11420-3 0  9993
2 23191  69.9205 308.0212 0570727 155.2587 207.7116 14.45895449200140
Source of the keplerian elements: AFSPC